This is the latest recevied weather packets stored in our database for station/object p43g-13. If no packets are shown the sender has not sent any weather packets the latest 10 day(s).
| Time | Temp. | Humidity | Pressure | Rain* | Wind** | Luminosity | Snow |
|---|---|---|---|---|---|---|---|
| 1787851076 | 31.67° C | 70% | 1011.2 hPa | 0 mm | - | 889 W/m² | - |
| 1787850776 | 31.67° C | 71% | 1011.1 hPa | 0 mm | - | 915 W/m² | - |
| 1787850476 | 31.67° C | 70% | 1011.3 hPa | 0 mm | - | 918 W/m² | - |
| 1787850176 | 31.67° C | 70% | 1011.3 hPa | 0 mm | - | 948 W/m² | - |
| 1787849877 | 31.67° C | 71% | 1011.5 hPa | 0 mm | - | 917 W/m² | - |
| 1787849576 | 31.67° C | 72% | 1011.7 hPa | 0 mm | - | 313 W/m² | - |
| 1787849276 | 32.22° C | 69% | 1011.5 hPa | 0 mm | - | 960 W/m² | - |
| 1787848981 | 32.22° C | 69% | 1011.6 hPa | 0 mm | - | 984 W/m² | - |
| 1787848676 | 32.22° C | 70% | 1011.7 hPa | 0 mm | - | 931 W/m² | - |
| 1787848376 | 32.22° C | 71% | 1012 hPa | 0 mm | - | 948 W/m² | - |
| 1787848076 | 32.78° C | 69% | 1011.7 hPa | 0 mm | - | 909 W/m² | - |
| 1787847775 | 32.22° C | 71% | 1011.8 hPa | 0 mm | - | 975 W/m² | - |
| 1787847476 | 31.67° C | 71% | 1011.9 hPa | 0 mm | - | 841 W/m² | - |
| 1787847176 | 31.67° C | 74% | 1012 hPa | 0 mm | - | 1016 W/m² | - |
| 1787846876 | 31.11° C | 73% | 1012 hPa | 0 mm | - | 338 W/m² | - |
| 1787846576 | 31.11° C | 74% | 1011.8 hPa | 0 mm | - | 946 W/m² | - |
| 1787846276 | 31.67° C | 72% | 1011.7 hPa | 0 mm | - | 970 W/m² | - |
| 1787845976 | 31.67° C | 73% | 1012 hPa | 0 mm | - | 284 W/m² | - |
| 1787845676 | 31.67° C | 73% | 1011.9 hPa | 0 mm | - | 941 W/m² | - |
| 1787845376 | 31.67° C | 73% | 1012 hPa | 0 mm | - | 473 W/m² | - |
| 1787845076 | 31.67° C | 74% | 1011.9 hPa | 0 mm | - | 951 W/m² | - |
| 1787844776 | 31.11° C | 74% | 1012 hPa | 0 mm | - | 964 W/m² | - |
| 1787844477 | 31.11° C | 74% | 1011.9 hPa | 0 mm | - | 914 W/m² | - |
| 1787844176 | 31.67° C | 74% | 1012.1 hPa | 0 mm | - | 996 W/m² | - |
| 1787843876 | 31.11° C | 74% | 1011.8 hPa | 0 mm | - | 783 W/m² | - |
* Rain latest hour (hover to see other rain measurements)
** Current wind speed in m/s (hover to see current wind gust speed)